| time (UTC) | temp F | wind direction | speed MPH | gust MPH | rain 1hr in | rain 24hr in | rain mn in | humidity % | barometer mb |
| 20260904090037 | 72 | 340 | 0.0 | 3.0 | 0.00 | 0.08 | 0.00 | 93 | 1012.2 |
| 20260904084538 | 72 | 0 | 0.0 | 2.0 | 0.00 | 0.08 | 0.00 | 93 | 1011.9 |
| 20260904083047 | 72 | 0 | 0.0 | 2.0 | 0.00 | 0.08 | 0.00 | 93 | 1012.0 |
| 20260904081538 | 72 | 232 | 0.0 | 4.0 | 0.00 | 0.08 | 0.00 | 93 | 1012.0 |
| 20260904080038 | 72 | 33 | 0.0 | 2.0 | 0.00 | 0.08 | 0.00 | 93 | 1012.1 |
| 20260904074542 | 72 | 33 | 0.0 | 3.0 | 0.00 | 0.08 | 0.00 | 93 | 1012.7 |
| 20260904073044 | 72 | 33 | 0.0 | 4.0 | 0.00 | 0.08 | 0.00 | 93 | 1012.6 |
| 20260904071540 | 71 | 170 | 2.0 | 4.0 | 0.00 | 0.08 | 0.00 | 93 | 1012.4 |
| 20260904070041 | 71 | 0 | 0.0 | 1.0 | 0.00 | 0.08 | 0.00 | 92 | 1012.3 |
| 20260904064537 | 71 | 0 | 0.0 | 2.0 | 0.00 | 0.08 | 0.00 | 92 | 1012.3 |
| 20260904063036 | 72 | 0 | 0.0 | 0.0 | 0.00 | 0.08 | 0.00 | 93 | 1012.4 |
| 20260904061539 | 72 | 170 | 0.0 | 2.0 | 0.00 | 0.08 | 0.00 | 93 | 1012.7 |
| 20260904060057 | 72 | 0 | 0.0 | 1.0 | 0.00 | 0.08 | 0.00 | 92 | 1013.0 |
| 20260904054554 | 72 | 170 | 1.0 | 2.0 | 0.00 | 0.08 | 0.00 | 92 | 1013.2 |
| 20260904053044 | 72 | 170 | 0.0 | 2.0 | 0.00 | 0.08 | 0.00 | 92 | 1013.2 |
| 20260904051538 | 72 | 65 | 1.0 | 3.0 | 0.00 | 0.08 | 0.00 | 92 | 1013.2 |
| 20260904050040 | 72 | 0 | 0.0 | 2.0 | 0.00 | 0.08 | 0.00 | 92 | 1013.5 |
| 20260904044543 | 72 | 0 | 0.0 | 2.0 | 0.00 | 0.08 | 0.08 | 92 | 1013.5 |
| 20260904043042 | 73 | 0 | 0.0 | 3.0 | 0.00 | 0.08 | 0.08 | 92 | 1013.5 |
| 20260904041539 | 73 | 0 | 0.0 | 2.0 | 0.00 | 0.08 | 0.08 | 92 | 1013.4 |
| 20260904040041 | 73 | 0 | 0.0 | 3.0 | 0.00 | 0.08 | 0.08 | 92 | 1013.7 |
| 20260904034536 | 73 | 65 | 1.0 | 3.0 | 0.00 | 0.08 | 0.08 | 92 | 1013.9 |
| 20260904033037 | 73 | 88 | 1.0 | 6.0 | 0.00 | 0.08 | 0.08 | 92 | 1014.0 |
| 20260904031535 | 73 | 81 | 0.0 | 3.0 | 0.00 | 0.08 | 0.08 | 92 | 1014.2 |
| 20260904030037 | 73 | 81 | 2.0 | 4.0 | 0.00 | 0.08 | 0.08 | 91 | 1014.3 |
| 20260904024540 | 73 | 81 | 2.0 | 4.0 | 0.00 | 0.08 | 0.08 | 91 | 1014.2 |
| 20260904023038 | 73 | 0 | 1.0 | 3.0 | 0.00 | 0.08 | 0.08 | 91 | 1014.1 |
| 20260904021537 | 73 | 0 | 0.0 | 0.0 | 0.00 | 0.08 | 0.08 | 90 | 1013.9 |
| 20260904020037 | 73 | 142 | 1.0 | 3.0 | 0.00 | 0.08 | 0.08 | 90 | 1013.6 |
| 20260904014611 | 73 | 0 | 0.0 | 3.0 | 0.00 | 0.08 | 0.08 | 89 | 1013.7 |
| 20260904013045 | 74 | 142 | 1.0 | 4.0 | 0.00 | 0.08 | 0.08 | 89 | 1013.3 |
| 20260904011538 | 74 | 0 | 0.0 | 4.0 | 0.00 | 0.08 | 0.08 | 88 | 1013.2 |
| 20260904010039 | 74 | 0 | 1.0 | 4.0 | 0.00 | 0.08 | 0.08 | 88 | 1013.1 |
| 20260904004535 | 75 | 108 | 0.0 | 6.0 | 0.00 | 0.08 | 0.08 | 87 | 1012.9 |
| 20260904003038 | 75 | 136 | 1.0 | 7.0 | 0.00 | 0.08 | 0.08 | 87 | 1012.6 |
| 20260904001534 | 76 | 0 | 1.0 | 7.0 | 0.00 | 0.08 | 0.08 | 85 | 1012.6 |
| 20260904000039 | 76 | 184 | 2.0 | 11.0 | 0.00 | 0.08 | 0.08 | 84 | 1012.4 |
| 20260903234542 | 77 | 0 | 3.0 | 7.0 | 0.00 | 0.08 | 0.08 | 82 | 1012.4 |
| 20260903233037 | 78 | 152 | 5.0 | 11.0 | 0.00 | 0.08 | 0.08 | 80 | 1012.5 |
| 20260903231537 | 78 | 177 | 5.0 | 11.0 | 0.00 | 0.08 | 0.08 | 78 | 1012.7 |
| 20260903230036 | 79 | 29 | 2.0 | 11.0 | 0.00 | 0.08 | 0.08 | 75 | 1012.8 |
| 20260903224534 | 81 | 140 | 4.0 | 11.0 | 0.00 | 0.08 | 0.08 | 72 | 1012.7 |
| 20260903223039 | 82 | 113 | 3.0 | 12.0 | 0.00 | 0.08 | 0.08 | 69 | 1012.9 |
| 20260903221537 | 84 | 180 | 3.0 | 13.0 | 0.00 | 0.08 | 0.08 | 66 | 1013.1 |
| 20260903220036 | 84 | 63 | 4.0 | 10.0 | 0.00 | 0.08 | 0.08 | 69 | 1012.9 |
| 20260903214542 | 84 | 159 | 5.0 | 10.0 | 0.00 | 0.08 | 0.08 | 71 | 1012.4 |
| 20260903213044 | 85 | 157 | 5.0 | 15.0 | 0.00 | 0.08 | 0.08 | 67 | 1012.4 |
| 20260903211600 | 85 | 156 | 5.0 | 14.0 | 0.00 | 0.08 | 0.08 | 67 | 1012.4 |
| 20260903210039 | 86 | 154 | 2.0 | 10.0 | 0.00 | 0.08 | 0.08 | 66 | 1012.5 |
| 20260903204546 | 87 | 190 | 5.0 | 11.0 | 0.00 | 0.08 | 0.08 | 64 | 1012.6 |
| 20260903203039 | 86 | 145 | 5.0 | 12.0 | 0.00 | 0.08 | 0.08 | 69 | 1012.9 |
| 20260903201545 | 85 | 163 | 3.0 | 9.0 | 0.00 | 0.08 | 0.08 | 68 | 1012.9 |
| 20260903200040 | 84 | 162 | 3.0 | 8.0 | 0.00 | 0.08 | 0.08 | 72 | 1013.1 |
| 20260903194538 | 84 | 178 | 3.0 | 8.0 | 0.00 | 0.08 | 0.08 | 70 | 1013.2 |
| 20260903193042 | 82 | 180 | 2.0 | 3.0 | 0.00 | 0.08 | 0.08 | 72 | 1013.5 |
| 20260903191537 | 81 | 63 | 1.0 | 5.0 | 0.00 | 0.08 | 0.08 | 76 | 1013.9 |
| 20260903190040 | 80 | 5 | 1.0 | 4.0 | 0.00 | 0.08 | 0.08 | 79 | 1013.9 |
| 20260903184549 | 79 | 283 | 2.0 | 11.0 | 0.00 | 0.08 | 0.08 | 82 | 1013.9 |
| 20260903183041 | 78 | 159 | 4.0 | 11.0 | 0.00 | 0.08 | 0.08 | 88 | 1013.2 |
| 20260903181542 | 76 | 180 | 3.0 | 8.0 | 0.01 | 0.08 | 0.08 | 91 | 1013.4 |
| 20260903180041 | 74 | 149 | 2.0 | 6.0 | 0.03 | 0.08 | 0.08 | 92 | 1013.8 |
| 20260903174540 | 73 | 85 | 0.0 | 3.0 | 0.03 | 0.08 | 0.08 | 91 | 1013.9 |
| 20260903173040 | 72 | 344 | 2.0 | 10.0 | 0.03 | 0.08 | 0.08 | 91 | 1014.0 |
| 20260903171554 | 72 | 336 | 4.0 | 13.0 | 0.06 | 0.07 | 0.07 | 91 | 1014.4 |
| 20260903170042 | 71 | 347 | 3.0 | 13.0 | 0.05 | 0.05 | 0.05 | 90 | 1014.7 |
| 20260903164540 | 71 | 331 | 6.0 | 16.0 | 0.05 | 0.05 | 0.05 | 89 | 1015.0 |
| 20260903163042 | 72 | 314 | 6.0 | 20.0 | 0.05 | 0.05 | 0.05 | 85 | 1015.2 |
| 20260903161539 | 76 | 300 | 11.0 | 21.0 | 0.00 | 0.00 | 0.00 | 79 | 1016.6 |
| 20260903160039 | 78 | 294 | 6.0 | 16.0 | 0.00 | 0.00 | 0.00 | 72 | 1015.2 |
| 20260903154541 | 79 | 291 | 6.0 | 15.0 | 0.00 | 0.00 | 0.00 | 69 | 1014.6 |
| 20260903153040 | 80 | 317 | 3.0 | 13.0 | 0.00 | 0.00 | 0.00 | 69 | 1014.4 |
| 20260903151539 | 81 | 300 | 3.0 | 11.0 | 0.00 | 0.00 | 0.00 | 72 | 1013.9 |
| 20260903150039 | 81 | 315 | 3.0 | 13.0 | 0.00 | 0.00 | 0.00 | 72 | 1014.2 |
| 20260903144541 | 82 | 313 | 4.0 | 11.0 | 0.00 | 0.00 | 0.00 | 75 | 1014.4 |
| 20260903143046 | 84 | 275 | 7.0 | 17.0 | 0.00 | 0.00 | 0.00 | 73 | 1014.3 |
| 20260903141539 | 85 | 267 | 1.0 | 7.0 | 0.00 | 0.00 | 0.00 | 74 | 1013.3 |
| 20260903140045 | 85 | 210 | 1.0 | 6.0 | 0.00 | 0.00 | 0.00 | 75 | 1013.1 |
| 20260903134539 | 83 | 252 | 2.0 | 8.0 | 0.00 | 0.00 | 0.00 | 79 | 1012.9 |
| 20260903133042 | 81 | 352 | 1.0 | 8.0 | 0.00 | 0.00 | 0.00 | 84 | 1012.9 |
| 20260903131539 | 78 | 245 | 1.0 | 7.0 | 0.00 | 0.00 | 0.00 | 88 | 1012.7 |
| 20260903130054 | 76 | 235 | 1.0 | 5.0 | 0.00 | 0.00 | 0.00 | 90 | 1012.6 |
| 20260903124553 | 75 | 202 | 3.0 | 6.0 | 0.00 | 0.00 | 0.00 | 92 | 1012.7 |
| 20260903123046 | 75 | 247 | 2.0 | 7.0 | 0.00 | 0.00 | 0.00 | 92 | 1012.8 |
| 20260903121541 | 74 | 171 | 2.0 | 7.0 | 0.00 | 0.00 | 0.00 | 92 | 1012.8 |
| 20260903120038 | 74 | 184 | 1.0 | 4.0 | 0.00 | 0.00 | 0.00 | 93 | 1012.9 |
| 20260903114539 | 74 | 171 | 2.0 | 7.0 | 0.00 | 0.00 | 0.00 | 92 | 1012.8 |
| 20260903113040 | 73 | 205 | 1.0 | 7.0 | 0.00 | 0.00 | 0.00 | 92 | 1012.8 |
| 20260903111537 | 73 | 189 | 1.0 | 3.0 | 0.00 | 0.00 | 0.00 | 92 | 1012.9 |
| 20260903110044 | 74 | 0 | 0.0 | 0.0 | 0.00 | 0.00 | 0.00 | 92 | 1012.9 |
| 20260903104539 | 74 | 0 | 0.0 | 0.0 | 0.00 | 0.00 | 0.00 | 92 | 1012.8 |
| 20260903103040 | 74 | 0 | 0.0 | 0.0 | 0.00 | 0.00 | 0.00 | 92 | 1012.8 |
| 20260903101538 | 74 | 0 | 0.0 | 0.0 | 0.00 | 0.00 | 0.00 | 92 | 1012.8 |
| 20260903100042 | 75 | 0 | 0.0 | 2.0 | 0.00 | 0.00 | 0.00 | 92 | 1012.6 |
| 20260903094547 | 75 | 0 | 0.0 | 3.0 | 0.00 | 0.00 | 0.00 | 92 | 1012.7 |
| 20260903093040 | 75 | 231 | 1.0 | 6.0 | 0.00 | 0.00 | 0.00 | 92 | 1012.7 |
| 20260903091538 | 75 | 306 | 1.0 | 6.0 | 0.00 | 0.00 | 0.00 | 92 | 1012.9 |